Weather History for Los Alamos, NM

Change the Weather History Date:

Friday, September 27, 2013

  Actual Average Record
Temperature  
Mean Temperature 54 °F -  
Max Temperature 63 °F 68 °F 84 °F (2005)
Min Temperature 43 °F 43 °F 32 °F (1970)
Degree Days  
Heating Degree Days 11    
Growing Degree Days 4 (Base 50)    
Moisture  
Dew Point 35 °F    
Average Humidity 48    
Maximum Humidity 75    
Minimum Humidity 29    
Precipitation  
Precipitation 0.00 in - - ()
Sea Level Pressure  
Sea Level Pressure 30.03 in    
Wind  
Wind Speed 9 mph (SSW)    
Max Wind Speed 30 mph    
Max Gust Speed 44 mph    
Visibility 10 miles    
Events Rain    
Averages and records for this station are not official NWS values.
T = Trace of Precipitation, MM = Missing Value Source: NWS Daily Summary

Daily Weather History Graph

Daily Weather History Graph

Search for Another Location

Airport:

Trip Planner

Search our weather history database for the weather conditions in past years. The results will help you decide how hot, cold, wet, or windy it might be!

Date:

Astronomy

Sep. 27, 2013 Rise Set
Actual Time 6:57 AM MDT 6:54 PM MDT
Civil Twilight 6:31 AM MDT 7:19 PM MDT
Nautical Twilight 6:01 AM MDT 7:49 PM MDT
Astronomical Twilight 5:31 AM MDT 8:19 PM MDT
Moon 12:05 AM MDT (9/27) 2:24 PM MDT (9/27)
Length of Visible Light 12h 47m
Length of Day
11h 56m
Last Quarter, 44% of the Moon is Illuminated
Sep 27
Last Quarter
Oct 4
New
Oct 11
First Quarter
Oct 18
Full
Oct 26
Last Quarter

Hourly Weather History & Observations

Time (MDT) Temp. Windchill Dew Point Humidity Pressure Visibility Wind Dir Wind Speed Gust Speed Precip Events Conditions
12:15 AM 63.5 °F - 30.7 °F 29% 30.01 in 10.0 mi SSW 9.2 mph 19.6 mph N/A   Mostly Cloudy
12:35 AM 63.3 °F - 30.7 °F 29% 30.00 in 10.0 mi SSW 6.9 mph - N/A   Scattered Clouds
12:55 AM 61.0 °F - 31.6 °F 33% 30.01 in 10.0 mi South 5.8 mph - N/A   Scattered Clouds
1:15 AM 61.2 °F - 31.6 °F 33% 30.01 in 10.0 mi Calm Calm - N/A   Scattered Clouds
1:35 AM 58.8 °F - 32.9 °F 38% 30.00 in 10.0 mi South 6.9 mph - N/A   Clear
1:55 AM 58.8 °F - 33.3 °F 38% 30.00 in 10.0 mi SSE 8.1 mph - N/A   Scattered Clouds
2:15 AM 58.3 °F - 33.6 °F 39% 30.00 in 10.0 mi South 8.1 mph - N/A   Scattered Clouds
2:35 AM 58.6 °F - 33.6 °F 39% 30.00 in 10.0 mi South 8.1 mph - N/A   Scattered Clouds
2:55 AM 57.9 °F - 34.0 °F 41% 29.99 in 10.0 mi South 9.2 mph - N/A   Clear
3:15 AM 58.5 °F - 34.5 °F 41% 29.99 in 10.0 mi South 12.7 mph 16.1 mph N/A   Clear
3:35 AM 57.7 °F - 35.2 °F 43% 29.98 in 10.0 mi South 6.9 mph - N/A   Clear
3:55 AM 58.1 °F - 35.4 °F 43% 29.98 in 10.0 mi South 9.2 mph - N/A   Clear
4:15 AM 59.0 °F - 35.1 °F 41% 29.97 in 10.0 mi South 6.9 mph - N/A   Mostly Cloudy
4:35 AM 57.6 °F - 36.5 °F 45% 29.98 in 10.0 mi SSE 9.2 mph - N/A   Scattered Clouds
4:55 AM 57.7 °F - 36.5 °F 45% 29.98 in 10.0 mi South 5.8 mph - N/A   Mostly Cloudy
5:15 AM 56.7 °F - 36.9 °F 48% 29.98 in 10.0 mi SSE 6.9 mph - N/A   Mostly Cloudy
5:35 AM 57.4 °F - 36.7 °F 46% 29.98 in 10.0 mi South 10.4 mph - N/A   Mostly Cloudy
5:55 AM 57.2 °F - 37.0 °F 47% 29.97 in 10.0 mi South 10.4 mph - N/A   Scattered Clouds
6:15 AM 57.0 °F - 37.4 °F 48% 29.97 in 10.0 mi South 8.1 mph - N/A   Scattered Clouds
6:35 AM 55.4 °F - 37.8 °F 52% 29.98 in 10.0 mi South 6.9 mph - N/A   Scattered Clouds
6:55 AM 55.4 °F - 37.9 °F 52% 29.97 in 10.0 mi South 6.9 mph - N/A   Scattered Clouds
7:15 AM 56.1 °F - 38.3 °F 51% 29.97 in 10.0 mi South 11.5 mph - N/A   Mostly Cloudy
7:35 AM 56.1 °F - 38.5 °F 52% 29.97 in 10.0 mi SSE 3.5 mph - N/A   Overcast
7:55 AM 56.1 °F - 39.2 °F 53% 29.98 in 10.0 mi South 9.2 mph - N/A   Overcast
8:15 AM 55.8 °F - 39.6 °F 55% 29.98 in 10.0 mi SSE 6.9 mph - N/A   Overcast
8:35 AM 56.1 °F - 40.5 °F 56% 29.98 in 10.0 mi SSE 6.9 mph - N/A   Mostly Cloudy
8:55 AM 57.9 °F - 41.4 °F 54% 29.98 in 10.0 mi SSE 12.7 mph 18.4 mph N/A   Scattered Clouds
9:15 AM 57.9 °F - 41.7 °F 55% 29.98 in 10.0 mi SSE 11.5 mph 16.1 mph N/A   Mostly Cloudy
9:35 AM 59.2 °F - 42.6 °F 54% 29.98 in 10.0 mi SE 12.7 mph 18.4 mph N/A   Scattered Clouds
9:55 AM 61.0 °F - 43.5 °F 53% 29.97 in 10.0 mi South 18.4 mph 28.8 mph N/A   Clear
10:15 AM 62.4 °F - 43.9 °F 51% 29.97 in 10.0 mi South 16.1 mph 27.6 mph N/A   Scattered Clouds
10:35 AM 61.7 °F - 44.2 °F 53% 29.97 in 10.0 mi South 20.7 mph 36.8 mph N/A   Overcast
10:55 AM 60.6 °F - 46.0 °F 59% 29.98 in 10.0 mi SSW 10.4 mph 26.5 mph N/A   Light Drizzle
11:15 AM 60.8 °F - 45.5 °F 57% 29.98 in 10.0 mi South 20.7 mph 25.3 mph N/A Rain Light Rain
11:35 AM 60.1 °F - 46.0 °F 60% 29.99 in 10.0 mi SW 15.0 mph 21.9 mph N/A   Overcast
11:55 AM 57.9 °F - 47.8 °F 69% 29.99 in 10.0 mi SSW 15.0 mph 25.3 mph N/A   Light Drizzle
12:15 PM 57.2 °F - 49.5 °F 75% 29.99 in 7.0 mi SSW 15.0 mph 26.5 mph N/A   Light Drizzle
12:35 PM 60.1 °F - 46.0 °F 60% 29.98 in 10.0 mi WSW 10.4 mph 24.2 mph N/A   Overcast
12:55 PM 61.2 °F - 44.1 °F 53% 29.98 in 10.0 mi SSW 16.1 mph 26.5 mph N/A   Overcast
1:15 PM 60.6 °F - 44.4 °F 55% 29.98 in 10.0 mi SSW 21.9 mph 26.5 mph N/A   Overcast
1:35 PM 59.5 °F - 44.6 °F 58% 29.98 in 10.0 mi SW 12.7 mph 19.6 mph N/A   Overcast
1:55 PM 57.9 °F - 43.9 °F 60% 29.98 in 10.0 mi SW 9.2 mph 20.7 mph N/A   Overcast
2:15 PM 61.2 °F - 42.8 °F 51% 29.98 in 10.0 mi SW 15.0 mph 26.5 mph N/A   Overcast
2:35 PM 58.3 °F - 43.0 °F 57% 29.98 in 10.0 mi West 11.5 mph 20.7 mph N/A   Overcast
2:55 PM 55.4 °F - 41.0 °F 58% 29.99 in 10.0 mi West 11.5 mph 25.3 mph N/A   Overcast
3:15 PM 54.5 °F - 38.7 °F 55% 29.99 in 10.0 mi West 18.4 mph 27.6 mph N/A   Overcast
3:35 PM 53.2 °F - 36.5 °F 53% 29.99 in 10.0 mi West 29.9 mph 39.1 mph N/A   Overcast
3:55 PM 52.7 °F - 36.0 °F 53% 29.99 in 10.0 mi West 26.5 mph 38.0 mph N/A   Overcast
4:15 PM 52.0 °F - 34.5 °F 51% 30.00 in 10.0 mi West 23.0 mph 43.7 mph N/A   Overcast
4:35 PM 52.0 °F - 34.3 °F 51% 30.01 in 10.0 mi West 19.6 mph 34.5 mph N/A   Overcast
4:55 PM 51.4 °F - 34.7 °F 53% 30.03 in 10.0 mi SE 3.5 mph 17.3 mph N/A   Overcast
5:15 PM 50.9 °F - 34.9 °F 54% 30.05 in 10.0 mi ESE 8.1 mph - N/A Rain Light Rain
5:35 PM 51.8 °F - 31.5 °F 46% 30.05 in 10.0 mi SSW 8.1 mph - N/A   Overcast
5:55 PM 51.8 °F - 30.6 °F 44% 30.07 in 10.0 mi Calm Calm - N/A   Overcast
6:15 PM 51.8 °F - 27.9 °F 40% 30.07 in 10.0 mi Calm Calm - N/A   Overcast
6:35 PM 51.8 °F - 27.7 °F 39% 30.08 in 10.0 mi Calm Calm - N/A   Overcast
6:55 PM 50.7 °F - 27.9 °F 41% 30.09 in 10.0 mi Calm Calm - N/A   Overcast
7:15 PM 48.2 °F - 38.7 °F 70% 30.10 in 10.0 mi ENE 8.1 mph - N/A   Overcast
7:35 PM 49.3 °F - 29.3 °F 46% 30.11 in 10.0 mi North 9.2 mph - N/A   Scattered Clouds
7:55 PM 46.4 °F 45.2 °F 38.1 °F 73% 30.12 in 10.0 mi NNE 3.5 mph - N/A   Clear
8:15 PM 48.0 °F - 23.0 °F 37% 30.12 in 10.0 mi WNW 9.2 mph 17.3 mph N/A   Clear
8:35 PM 47.7 °F - 22.5 °F 37% 30.13 in 10.0 mi North 3.5 mph - N/A   Clear
8:55 PM 46.8 °F - 22.3 °F 38% 30.14 in 10.0 mi North 9.2 mph 16.1 mph N/A   Clear
9:15 PM 47.3 °F - 18.7 °F 32% 30.14 in 10.0 mi NW 5.8 mph - N/A   Clear
9:35 PM 46.9 °F - 19.2 °F 33% 30.15 in 10.0 mi Calm Calm - N/A   Clear
9:55 PM 45.7 °F 42.7 °F 23.4 °F 41% 30.15 in 10.0 mi ENE 5.8 mph - N/A   Clear
10:15 PM 46.4 °F 40.4 °F 21.6 °F 37% 30.15 in 10.0 mi North 13.8 mph - N/A   Clear
10:35 PM 45.9 °F 41.7 °F 20.8 °F 37% 30.17 in 10.0 mi North 8.1 mph - N/A   Clear
10:55 PM 46.0 °F - 19.6 °F 35% 30.18 in 10.0 mi Calm Calm - N/A   Clear
11:15 PM 45.7 °F 41.5 °F 18.0 °F 33% 30.18 in 10.0 mi NNW 8.1 mph - N/A   Clear
11:35 PM 45.7 °F - 17.6 °F 33% 30.19 in 10.0 mi Calm Calm - N/A   Clear
11:55 PM 43.7 °F 42.1 °F 20.3 °F 39% 30.19 in 10.0 mi North 3.5 mph - N/A   Clear